Marion, KY

9:01 PM CST on January 24, 2017 (GMT -0600)
Marion-Critt Cnty AP, Marion,

Weather History for K5M9 - February, 2014

Change the Weather History Date:

Friday, February 28, 2014

  Actual Average (KEHR) Record (KEHR)
Temperature  
Mean Temperature 32 °F -  
Max Temperature 47 °F 52 °F 74 °F (1981)
Min Temperature 16 °F 31 °F 5 °F (1934)
Degree Days  
Heating Degree Days 34    
Moisture  
Dew Point 11 °F    
Average Humidity 42    
Maximum Humidity 66    
Minimum Humidity 23    
Precipitation  
Precipitation 0.00 in - - ()
Sea Level Pressure  
Sea Level Pressure 30.07 in    
Wind  
Wind Speed 7 mph (SE)    
Max Wind Speed 12 mph    
Max Gust Speed -    
Visibility 10 miles    
Events      
Averages and records for this station are not official NWS values.
T = Trace of Precipitation, MM = Missing Value Source: NWS Daily Summary

Daily Weather History Graph

Daily Weather History Graph

Search for Another Location

Airport or City:

Trip Planner

Search our weather history database for the weather conditions in past years. The results will help you decide how hot, cold, wet, or windy it might be!

Date:

Astronomy

Feb. 28, 2014 Rise Set
Actual Time 6:24 AM CST 5:45 PM CST
Civil Twilight 5:58 AM CST 6:11 PM CST
Nautical Twilight 5:28 AM CST 6:41 PM CST
Astronomical Twilight 4:58 AM CST 7:12 PM CST
Moon 5:39 AM CST (2/28) 5:21 PM CST (2/28)
Length of Visible Light 12h 12m
Length of Day
11h 20m
Waning Crescent, 1% of the Moon is Illuminated
Feb 28
Waning Crescent
Mar 1
New
Mar 8
First Quarter
Mar 16
Full
Mar 23
Last Quarter

Hourly Weather History & Observations

Time (CST) Temp. Windchill Dew Point Humidity Pressure Visibility Wind Dir Wind Speed Gust Speed Precip Events Conditions
12:15 AM 19.0 °F 9.0 °F 6.4 °F 58% 30.11 in 10.0 mi East 8.1 mph - N/A   Clear
12:55 AM 18.1 °F 7.9 °F 7.2 °F 62% 30.11 in 10.0 mi ENE 8.1 mph - N/A   Clear
1:35 AM 18.1 °F 8.9 °F 5.9 °F 59% 30.12 in 10.0 mi East 6.9 mph - N/A   Clear
1:55 AM 18.0 °F 9.8 °F 5.9 °F 59% 30.11 in 10.0 mi East 5.8 mph - N/A   Clear
2:15 AM 17.6 °F 6.4 °F 6.3 °F 61% 30.11 in 10.0 mi East 9.2 mph - N/A   Clear
2:35 AM 17.6 °F 7.3 °F 5.9 °F 60% 30.10 in 10.0 mi East 8.1 mph - N/A   Clear
2:55 AM 17.2 °F 7.8 °F 5.9 °F 61% 30.11 in 10.0 mi East 6.9 mph - N/A   Clear
3:15 AM 17.1 °F 6.6 °F 5.9 °F 62% 30.11 in 10.0 mi East 8.1 mph - N/A   Clear
3:35 AM 17.2 °F 8.9 °F 5.5 °F 60% 30.12 in 10.0 mi East 5.8 mph - N/A   Clear
3:55 AM 16.5 °F 6.0 °F 6.4 °F 65% 30.10 in 10.0 mi East 8.1 mph - N/A   Clear
4:15 AM 17.1 °F 7.6 °F 5.7 °F 61% 30.10 in 10.0 mi East 6.9 mph - N/A   Clear
4:35 AM 16.7 °F 7.2 °F 6.3 °F 64% 30.11 in 10.0 mi East 6.9 mph - N/A   Clear
4:55 AM 16.7 °F 9.6 °F 6.4 °F 64% 30.12 in 10.0 mi East 4.6 mph - N/A   Clear
5:15 AM 16.7 °F 9.6 °F 6.1 °F 63% 30.13 in 10.0 mi East 4.6 mph - N/A   Clear
5:35 AM 16.5 °F 8.1 °F 6.6 °F 65% 30.13 in 10.0 mi ESE 5.8 mph - N/A   Clear
5:55 AM 16.5 °F 9.4 °F 6.8 °F 66% 30.14 in 10.0 mi ESE 4.6 mph - N/A   Clear
6:15 AM 16.7 °F 5.3 °F 6.6 °F 65% 30.13 in 10.0 mi ESE 9.2 mph - N/A   Clear
6:35 AM 16.7 °F 4.5 °F 6.3 °F 64% 30.12 in 10.0 mi East 10.4 mph - N/A   Clear
6:55 AM 17.6 °F 8.2 °F 6.6 °F 62% 30.13 in 10.0 mi ESE 6.9 mph - N/A   Clear
7:15 AM 18.7 °F 7.8 °F 7.0 °F 60% 30.14 in 10.0 mi ESE 9.2 mph - N/A   Clear
7:35 AM 20.1 °F 11.3 °F 7.3 °F 58% 30.15 in 10.0 mi East 6.9 mph - N/A   Scattered Clouds
7:55 AM 21.2 °F 12.6 °F 7.0 °F 54% 30.15 in 10.0 mi East 6.9 mph - N/A   Scattered Clouds
8:15 AM 23.0 °F 13.9 °F 7.9 °F 52% 30.15 in 10.0 mi East 8.1 mph - N/A   Scattered Clouds
8:35 AM 25.5 °F 16.2 °F 8.1 °F 48% 30.15 in 10.0 mi ESE 9.2 mph - N/A   Clear
8:55 AM 27.5 °F 18.0 °F 7.9 °F 44% 30.14 in 10.0 mi ESE 10.4 mph - N/A   Clear
9:15 AM 29.1 °F 19.4 °F 8.4 °F 42% 30.14 in 10.0 mi ESE 11.5 mph - N/A   Clear
9:35 AM 30.7 °F 22.0 °F 8.6 °F 40% 30.13 in 10.0 mi SE 10.4 mph - N/A   Clear
9:55 AM 32.2 °F 25.0 °F 9.0 °F 38% 30.14 in 10.0 mi ESE 8.1 mph - N/A   Clear
10:15 AM 33.3 °F 26.4 °F 8.2 °F 35% 30.14 in 10.0 mi ESE 8.1 mph - N/A   Clear
10:35 AM 35.1 °F 28.6 °F 7.9 °F 32% 30.13 in 10.0 mi SE 8.1 mph - N/A   Clear
10:55 AM 36.1 °F 31.4 °F 8.8 °F 32% 30.13 in 10.0 mi South 5.8 mph - N/A   Clear
11:15 AM 37.2 °F 31.9 °F 8.6 °F 31% 30.13 in 10.0 mi SSE 6.9 mph - N/A   Clear
11:35 AM 39.9 °F 35.1 °F 10.6 °F 30% 30.12 in 10.0 mi SSE 6.9 mph - N/A   Clear
11:55 AM 41.5 °F 38.6 °F 11.5 °F 29% 30.11 in 10.0 mi SSE 4.6 mph - N/A   Clear
12:15 PM 41.0 °F 39.0 °F 9.7 °F 28% 30.10 in 10.0 mi SE 3.5 mph - N/A   Clear
12:35 PM 42.6 °F 39.0 °F 11.8 °F 29% 30.08 in 10.0 mi South 5.8 mph - N/A   Clear
12:55 PM 43.3 °F 39.2 °F 11.1 °F 27% 30.06 in 10.0 mi South 6.9 mph - N/A   Clear
1:15 PM 43.7 °F 41.1 °F 11.8 °F 27% 30.05 in 10.0 mi South 4.6 mph - N/A   Clear
1:35 PM 45.3 °F 43.0 °F 13.3 °F 27% 30.04 in 10.0 mi South 4.6 mph - N/A   Clear
1:55 PM 45.1 °F 41.4 °F 11.5 °F 26% 30.03 in 10.0 mi SSE 6.9 mph - N/A   Clear
2:15 PM 46.2 °F 43.3 °F 12.4 °F 26% 30.03 in 10.0 mi SSE 5.8 mph - N/A   Clear
2:35 PM 46.6 °F - 11.1 °F 24% 30.03 in 10.0 mi SSE 9.2 mph - N/A   Clear
2:55 PM 46.9 °F - 10.4 °F 23% 30.02 in 10.0 mi SSE 8.1 mph - N/A   Clear
3:15 PM 46.9 °F - 10.9 °F 23% 30.01 in 10.0 mi South 6.9 mph - N/A   Clear
3:35 PM 47.1 °F - 10.9 °F 23% 30.01 in 10.0 mi SSE 8.1 mph - N/A   Clear
3:55 PM 46.9 °F - 12.4 °F 25% 30.00 in 10.0 mi South 3.5 mph - N/A   Clear
4:15 PM 45.7 °F 42.7 °F 11.3 °F 25% 29.99 in 10.0 mi SSE 5.8 mph - N/A   Clear
4:35 PM 44.6 °F 40.7 °F 12.2 °F 27% 29.99 in 10.0 mi SSE 6.9 mph - N/A   Clear
4:55 PM 44.1 °F 40.1 °F 12.0 °F 27% 29.99 in 10.0 mi SSE 6.9 mph - N/A   Clear
5:15 PM 43.7 °F 40.3 °F 13.5 °F 29% 29.99 in 10.0 mi SSE 5.8 mph - N/A   Clear
5:35 PM 42.8 °F 41.1 °F 14.4 °F 32% 29.99 in 10.0 mi SE 3.5 mph - N/A   Clear
5:55 PM 41.7 °F 38.0 °F 14.2 °F 33% 29.99 in 10.0 mi SE 5.8 mph - N/A   Clear
6:15 PM 41.2 °F 38.2 °F 13.8 °F 33% 29.99 in 10.0 mi SE 4.6 mph - N/A   Clear
6:35 PM 39.6 °F 36.3 °F 13.8 °F 35% 29.99 in 10.0 mi SE 4.6 mph - N/A   Clear
6:55 PM 39.0 °F 35.7 °F 13.1 °F 35% 30.00 in 10.0 mi ESE 4.6 mph - N/A   Clear
7:15 PM 39.6 °F 37.4 °F 12.4 °F 33% 30.01 in 10.0 mi East 3.5 mph - N/A   Clear
7:35 PM 39.4 °F 37.2 °F 12.7 °F 34% 30.02 in 10.0 mi East 3.5 mph - N/A   Clear
7:55 PM 39.7 °F 36.5 °F 12.0 °F 32% 30.02 in 10.0 mi East 4.6 mph - N/A   Scattered Clouds
8:15 PM 40.3 °F 38.2 °F 12.2 °F 32% 30.02 in 10.0 mi East 3.5 mph - N/A   Mostly Cloudy
8:35 PM 40.8 °F 38.8 °F 13.5 °F 33% 30.03 in 10.0 mi East 3.5 mph - N/A   Overcast
8:55 PM 41.0 °F - 13.1 °F 32% 30.04 in 10.0 mi Calm Calm - N/A   Overcast
9:15 PM 40.8 °F 38.8 °F 12.7 °F 32% 30.05 in 10.0 mi SSW 3.5 mph - N/A   Overcast
9:35 PM 40.3 °F - 14.9 °F 36% 30.05 in 10.0 mi Calm Calm - N/A   Overcast
9:55 PM 38.3 °F - 21.6 °F 51% 30.05 in 10.0 mi Calm Calm - N/A   Overcast
10:15 PM 41.4 °F 39.4 °F 15.1 °F 35% 30.06 in 10.0 mi SSW 3.5 mph - N/A   Overcast
10:35 PM 40.8 °F 37.8 °F 16.5 °F 37% 30.06 in 10.0 mi South 4.6 mph - N/A   Overcast
10:55 PM 41.4 °F 38.4 °F 19.0 °F 41% 30.05 in 10.0 mi South 4.6 mph - N/A   Overcast
11:15 PM 42.3 °F 39.4 °F 22.5 °F 45% 30.04 in 10.0 mi South 4.6 mph - N/A   Overcast
11:35 PM 42.3 °F - 25.2 °F 51% 30.04 in 10.0 mi Calm Calm - N/A   Overcast
11:55 PM 41.4 °F - 25.7 °F 54% 30.05 in 10.0 mi Calm Calm - N/A   Overcast